When you browse on this site, cookies collect data to enhance your experience and personalize the content and advertising you see.
Visit our Privacy Policy to learn more. By continuing to use the site, you agree to this use of cookies and data.
  • In Hungary
  • List of Countries
  • For 7 days
  • Water Temperature
  • Satellite Maps
  • Weather Map
  • News
  • Weather Widgets
  • user-avatar
    Login

    Hourly Weather Gurik

    Today, 16 January, Wednesday

    Time Temperature Precipitation Wind Pressure Humidity
    00:00 +4°C° 0 mm 3 mps 689 mmHg 46%
    01:00 +4°C° 0 mm 4 mps 688 mmHg 44%
    02:00 +5°C° 0 mm 4 mps 688 mmHg 42%
    03:00 +5°C° 0 mm 4 mps 687 mmHg 41%
    04:00 +5°C° 0 mm 4 mps 687 mmHg 40%
    05:00 +5°C° 0 mm 4 mps 687 mmHg 39%
    06:00 +5°C° 0 mm 4 mps 686 mmHg 39%
    07:00 +6°C° 0 mm 4 mps 686 mmHg 37%
    08:00 +7°C° 0 mm 4 mps 686 mmHg 36%
    09:00 +7°C° 0 mm 4 mps 686 mmHg 34%
    10:00 +10°C° 0 mm 3 mps 687 mmHg 31%
    11:00 +12°C° 0 mm 3 mps 687 mmHg 27%
    12:00 +14°C° 0 mm 3 mps 687 mmHg 24%
    13:00 +14°C° 0 mm 3 mps 687 mmHg 26%
    14:00 +14°C° 0 mm 2 mps 687 mmHg 28%
    15:00 +13°C° 0 mm 2 mps 687 mmHg 30%
    16:00 +11°C° 0 mm 3 mps 687 mmHg 33%
    17:00 +9°C° 0 mm 3 mps 687 mmHg 37%
    18:00 +7°C° 0 mm 3 mps 688 mmHg 40%
    19:00 +5°C° 0 mm 3 mps 688 mmHg 41%
    20:00 +5°C° 0 mm 3 mps 688 mmHg 43%
    21:00 +4°C° 0 mm 3 mps 689 mmHg 44%
    22:00 +3°C° 0 mm 3 mps 689 mmHg 50%
    23:00 +2°C° 0 mm 3 mps 689 mmHg 55%

    Tomorrow, 17 January, Thursday

    Time Temperature Precipitation Wind Pressure Humidity
    00:00 +3°C° 0 mm 2 mps 689 mmHg 61%
    01:00 +2°C° 0 mm 2 mps 690 mmHg 67%
    02:00 +1°C° 0 mm 2 mps 690 mmHg 72%
    03:00 -1°C° 0 mm 2 mps 690 mmHg 78%
    04:00 -1°C° 0 mm 2 mps 690 mmHg 79%
    05:00 -1°C° 0 mm 2 mps 690 mmHg 79%
    06:00 -1°C° 0 mm 2 mps 691 mmHg 80%
    07:00 -1°C° 0 mm 2 mps 691 mmHg 78%
    08:00 -1°C° 0 mm 2 mps 692 mmHg 76%
    09:00 -1°C° 0 mm 2 mps 692 mmHg 75%
    10:00 -1°C° 0.2 mm 3 mps 692 mmHg 72%
    11:00 -1°C° 0.2 mm 3 mps 692 mmHg 69%
    12:00 -2°C° 0.2 mm 4 mps 692 mmHg 66%
    13:00 -2°C° 0.5 mm 4 mps 693 mmHg 72%
    14:00 -2°C° 0.5 mm 3 mps 693 mmHg 78%
    15:00 -2°C° 0.5 mm 3 mps 693 mmHg 84%
    16:00 -2°C° 0.5 mm 3 mps 694 mmHg 84%
    17:00 -4°C° 0.5 mm 3 mps 695 mmHg 85%
    18:00 -3°C° 0.5 mm 2 mps 696 mmHg 85%
    19:00 -3°C° 0.2 mm 2 mps 696 mmHg 84%
    20:00 -3°C° 0.2 mm 2 mps 696 mmHg 84%
    21:00 -3°C° 0.2 mm 2 mps 696 mmHg 83%
    22:00 -3°C° 0.1 mm 2 mps 696 mmHg 83%
    23:00 -3°C° 0.1 mm 2 mps 697 mmHg 82%

    Day after tomorrow, 18 January, Friday

    Time Temperature Precipitation Wind Pressure Humidity
    00:00 -3°C° 0.1 mm 2 mps 697 mmHg 82%
    01:00 -1°C° 0.1 mm 1 mps 698 mmHg 82%
    02:00 -1°C° 0.1 mm 1 mps 698 mmHg 83%
    03:00 -1°C° 0.1 mm 1 mps 698 mmHg 84%
    04:00 -1°C° 0 mm 1 mps 698 mmHg 82%
    05:00 -1°C° 0 mm 1 mps 698 mmHg 81%
    06:00 -3°C° 0 mm 2 mps 698 mmHg 79%
    07:00 0°C° 0 mm 1 mps 699 mmHg 77%
    08:00 0°C° 0 mm 1 mps 699 mmHg 75%
    09:00 0°C° 0 mm 1 mps 700 mmHg 73%
    10:00 +1°C° 0 mm 1 mps 699 mmHg 71%
    11:00 -1°C° 0 mm 2 mps 699 mmHg 69%
    12:00 +1°C° 0 mm 2 mps 699 mmHg 68%
    13:00 +1°C° 0 mm 2 mps 699 mmHg 69%
    14:00 +2°C° 0 mm 1 mps 699 mmHg 71%
    15:00 +2°C° 0 mm 1 mps 699 mmHg 72%
    16:00 +1°C° 0 mm 1 mps 699 mmHg 75%
    17:00 0°C° 0 mm 1 mps 699 mmHg 78%
    18:00 -1°C° 0 mm 1 mps 699 mmHg 80%
    19:00 -1°C° 0 mm 1 mps 699 mmHg 77%
    20:00 -1°C° 0 mm 1 mps 699 mmHg 73%
    21:00 -1°C° 0 mm 1 mps 699 mmHg 69%
    22:00 -1°C° 0 mm 1 mps 699 mmHg 67%
    23:00 -1°C° 0 mm 1 mps 699 mmHg 64%

    19 January, Saturday

    Time Temperature Precipitation Wind Pressure Humidity
    00:00 -1°C° 0 mm 1 mps 699 mmHg 62%
    01:00 -1°C° 0 mm 1 mps 699 mmHg 59%
    02:00 -1°C° 0 mm 1 mps 698 mmHg 57%
    03:00 -1°C° 0 mm 1 mps 698 mmHg 54%
    04:00 -1°C° 0 mm 1 mps 698 mmHg 51%
    05:00 -3°C° 0 mm 2 mps 698 mmHg 48%
    06:00 -3°C° 0 mm 2 mps 698 mmHg 45%
    07:00 0°C° 0 mm 1 mps 698 mmHg 44%
    08:00 +1°C° 0 mm 1 mps 699 mmHg 42%
    09:00 +2°C° 0 mm 1 mps 699 mmHg 40%
    10:00 +2°C° 0 mm 1 mps 699 mmHg 40%
    11:00 +3°C° 0 mm 1 mps 699 mmHg 40%
    12:00 +4°C° 0 mm 1 mps 699 mmHg 40%
    13:00 +4°C° 0 mm 1 mps 699 mmHg 43%
    14:00 +4°C° 0 mm 1 mps 698 mmHg 47%
    15:00 +4°C° 0 mm 1 mps 698 mmHg 51%
    16:00 +3°C° 0 mm 1 mps 698 mmHg 52%
    17:00 +1°C° 0 mm 1 mps 698 mmHg 54%
    18:00 0°C° 0 mm 1 mps 699 mmHg 56%
    19:00 0°C° 0 mm 1 mps 699 mmHg 52%
    20:00 -2°C° 0 mm 2 mps 699 mmHg 49%
    21:00 -2°C° 0 mm 2 mps 699 mmHg 45%
    22:00 -2°C° 0 mm 2 mps 699 mmHg 43%
    23:00 -2°C° 0 mm 2 mps 699 mmHg 41%

    20 January, Sunday

    Time Temperature Precipitation Wind Pressure Humidity
    00:00 -2°C° 0 mm 2 mps 699 mmHg 39%
    01:00 -2°C° 0 mm 2 mps 699 mmHg 38%
    02:00 -2°C° 0 mm 2 mps 699 mmHg 38%
    03:00 0°C° 0 mm 1 mps 699 mmHg 38%
    04:00 0°C° 0 mm 1 mps 699 mmHg 38%
    05:00 0°C° 0 mm 1 mps 700 mmHg 38%
    06:00 0°C° 0 mm 1 mps 700 mmHg 39%
    07:00 +1°C° 0 mm 1 mps 700 mmHg 38%
    08:00 +1°C° 0 mm 1 mps 700 mmHg 38%
    09:00 +2°C° 0 mm 1 mps 701 mmHg 38%
    10:00 +3°C° 0 mm 1 mps 701 mmHg 38%
    11:00 +4°C° 0 mm 1 mps 701 mmHg 38%
    12:00 +4°C° 0 mm 2 mps 700 mmHg 38%
    13:00 +3°C° 0 mm 2 mps 700 mmHg 44%
    14:00 +3°C° 0 mm 2 mps 700 mmHg 50%
    15:00 +3°C° 0 mm 2 mps 700 mmHg 56%
    16:00 +3°C° 0 mm 1 mps 700 mmHg 61%
    17:00 +2°C° 0 mm 1 mps 700 mmHg 66%
    18:00 +1°C° 0 mm 1 mps 700 mmHg 72%
    19:00 +1°C° 0 mm 1 mps 700 mmHg 71%
    20:00 +1°C° 0 mm 1 mps 700 mmHg 70%
    21:00 0°C° 0 mm 0 mps 700 mmHg 69%
    22:00 +1°C° 0 mm 1 mps 699 mmHg 67%
    23:00 +1°C° 0 mm 1 mps 699 mmHg 65%

    21 January, Monday

    Time Temperature Precipitation Wind Pressure Humidity
    00:00 +1°C° 0 mm 1 mps 699 mmHg 62%
    01:00 0°C° 0 mm 1 mps 699 mmHg 60%
    02:00 0°C° 0 mm 1 mps 698 mmHg 58%
    03:00 0°C° 0 mm 1 mps 698 mmHg 55%
    04:00 0°C° 0 mm 1 mps 698 mmHg 54%
    05:00 0°C° 0 mm 1 mps 698 mmHg 53%
    06:00 0°C° 0 mm 1 mps 698 mmHg 52%
    07:00 +1°C° 0 mm 1 mps 698 mmHg 50%
    08:00 +2°C° 0 mm 1 mps 698 mmHg 48%
    09:00 +3°C° 0 mm 1 mps 698 mmHg 46%
    10:00 +4°C° 0 mm 1 mps 697 mmHg 45%
    11:00 +5°C° 0 mm 1 mps 697 mmHg 45%
    12:00 +6°C° 0 mm 1 mps 696 mmHg 44%
    13:00 +6°C° 0 mm 1 mps 696 mmHg 48%
    14:00 +6°C° 0 mm 1 mps 695 mmHg 51%
    15:00 +6°C° 0 mm 1 mps 695 mmHg 55%
    16:00 +5°C° 0 mm 1 mps 695 mmHg 58%
    17:00 +4°C° 0 mm 1 mps 695 mmHg 60%
    18:00 +1°C° 0 mm 2 mps 694 mmHg 63%
    19:00 +1°C° 0 mm 2 mps 694 mmHg 58%
    20:00 +1°C° 0 mm 2 mps 694 mmHg 53%
    21:00 +1°C° 0 mm 2 mps 694 mmHg 48%
    22:00 +1°C° 0 mm 2 mps 693 mmHg 45%
    23:00 0°C° 0 mm 3 mps 693 mmHg 43%
    Show more